Temp
-17 -17 -16 -16 -16 -16 -16 -15 -15 -15 -15 -15 -15 -15 -15 -15 -15 -14 -14 -15 -15 -15 -14 -14 -15 -15 -15 -15 -15 -15 -15 -15 -14 -15 -15 -15 -15 -14 -14 -14 -14 -14 -14 -14
-18 -17 -16 -16 -16 -16 -16 -15 -15 -15 -15 -15 -15 -15 -15 -15 -15 -14 -15 -15 -15 -15 -15 -15 -15 -15 -15 -15 -15 -15 -14 -15 -15 -15 -15 -15 -15 -15 -15 -14 -14 -14 -14 -15
-18 -17 -17 -16 -16 -16 -16 -16 -15 -15 -15 -15 -15 -15 -15 -15 -15 -15 -15 -15 -15 -15 -15 -15 -15 -15 -15 -15 -14 -15 -15 -15 -15 -15 -15 -15 -15 -15 -15 -14 -14 -15 -15 -15
-18 -17 -17 -16 -16 -16 -15 -15 -15 -15 -15 -15 -15 -15 -15 -15 -15 -15 -15 -15 -15 -14 -15 -15 -15 -15 -15 -15 -15 -15 -15 -15 -15 -15 -15 -15 -15 -15 -15 -15 -15 -15 -15 -15
-18 -17 -17 -16 -16 -16 -15 -15 -15 -15 -15 -15 -15 -14 -14 -15 -15 -15 -15 -15 -14 -15 -15 -15 -15 -15 -15 -15 -15 -15 -15 -15 -15 -15 -15 -15 -15 -15 -15 -15 -15 -15 -15 -15
-18 -17 -17 -16 -16 -16 -15 -15 -15 -15 -15 -15 -15 -14 -15 -15 -15 -15 -15 -15 -14 -15 -15 -15 -15 -15 -15 -15 -15 -15 -15 -15 -15 -15 -15 -15 -14 -15 -15 -15 -15 -15 -15 -15
-18 -17 -17 -16 -16 -16 -15 -15 -15 -15 -15 -15 -15 -15 -15 -15 -15 -15 -15 -14 -15 -15 -15 -15 -15 -15 -15 -15 -15 -15 -15 -15 -15 -15 -15 -15 -15 -15 -15 -15 -15 -15 -15 -16
-18 -17 -17 -17 -16 -15 -15 -15 -15 -15 -15 -15 -15 -15 -15 -14 -14 -14 -14 -15 -14 -15 -15 -15 -15 -15 -15 -15 -15 -15 -15 -15 -15 -15 -15 -15 -15 -15 -15 -15 -15 -16 -16 -16
-18 -17 -17 -17 -16 -15 -15 -15 -15 -15 -15 -15 -15 -15 -14 -14 -14 -15 -15 -14 -14 -14 -14 -15 -15 -15 -15 -15 -15 -15 -15 -15 -15 -15 -15 -15 -15 -15 -16 -15 -15 -16 -16 -16
-18 -18 -17 -17 -16 -16 -16 -15 -15 -15 -15 -15 -15 -15 -15 -14 -14 -14 -14 -14 -14 -14 -14 -14 -14 -14 -14 -14 -14 -15 -15 -15 -15 -15 -15 -15 -15 -16 -16 -16 -15 -16 -16 -16
-19 -18 -18 -17 -17 -17 -16 -16 -15 -15 -15 -15 -15 -15 -15 -15 -15 -14 -14 -14 -14 -14 -14 -14 -14 -14 -14 -14 -14 -14 -15 -15 -15 -15 -15 -15 -16 -16 -16 -16 -16 -16 -16 -16
-19 -19 -18 -18 -17 -17 -16 -16 -15 -15 -15 -15 -15 -15 -15 -15 -15 -14 -14 -14 -14 -14 -14 -14 -14 -14 -14 -14 -14 -15 -15 -15 -15 -16 -16 -16 -16 -16 -16 -16 -16 -16 -16 -17
-19 -19 -19 -18 -18 -17 -17 -16 -16 -15 -15 -15 -15 -15 -15 -15 -15 -15 -14 -14 -14 -14 -14 -14 -14 -14 -14 -15 -15 -15 -16 -16 -15 -16 -16 -16 -16 -16 -16 -16 -16 -17 -17 -17
-20 -19 -19 -19 -19 -18 -17 -17 -16 -16 -16 -15 -15 -15 -15 -15 -15 -15 -15 -15 -14 -15 -14 -14 -14 -15 -15 -15 -15 -15 -16 -16 -16 -16 -16 -16 -16 -17 -17 -17 -17 -17 -18 -18
-20 -20 -19 -19 -19 -19 -18 -17 -17 -17 -16 -16 -16 -15 -15 -15 -15 -15 -15 -15 -15 -15 -15 -15 -15 -15 -15 -15 -15 -16 -17 -17 -17 -16 -16 -16 -17 -17 -17 -17 -18 -18 -19 -19
-20 -19 -19 -19 -19 -19 -18 -18 -18 -17 -17 -16 -16 -16 -15 -16 -16 -15 -16 -16 -16 -16 -16 -16 -16 -16 -16 -15 -15 -17 -18 -18 -17 -17 -17 -17 -17 -18 -18 -18 -19 -19 -19 -19
-19 -19 -19 -19 -19 -19 -18 -18 -18 -18 -17 -17 -17 -16 -16 -17 -17 -17 -17 -17 -17 -17 -17 -17 -17 -17 -17 -16 -16 -18 -18 -18 -18 -18 -18 -18 -18 -18 -19 -19 -19 -20 -19 -19
-19 -19 -19 -19 -19 -19 -19 -19 -19 -18 -18 -18 -17 -17 -18 -18 -18 -18 -18 -18 -17 -17 -17 -17 -17 -17 -17 -16 -18 -18 -18 -18 -18 -18 -19 -19 -19 -19 -19 -20 -20 -20 -20 -19
-20 -20 -20 -19 -19 -19 -19 -19 -19 -19 -18 -18 -18 -18 -18 -18 -19 -19 -19 -18 -18 -18 -17 -18 -17 -17 -17 -18 -18 -18 -18 -18 -19 -19 -19 -19 -19 -19 -20 -20 -20 -20 -20 -21
-20 -20 -20 -20 -20 -20 -20 -19 -19 -18 -18 -18 -18 -19 -19 -19 -19 -19 -19 -19 -18 -18 -18 -18 -18 -17 -18 -19 -19 -19 -19 -19 -19 -19 -19 -19 -20 -20 -20 -20 -20 -20 -21 -21
-20 -20 -20 -20 -20 -20 -19 -19 -18 -18 -18 -18 -19 -19 -19 -19 -19 -19 -19 -18 -19 -18 -18 -18 -17 -18 -18 -19 -19 -19 -19 -19 -20 -20 -20 -20 -20 -20 -20 -20 -21 -21 -22 -22
-20 -20 -20 -20 -20 -20 -19 -19 -18 -18 -18 -18 -19 -19 -19 -19 -19 -19 -19 -19 -19 -18 -18 -18 -18 -18 -19 -19 -19 -19 -19 -20 -20 -20 -20 -20 -20 -21 -21 -21 -22 -23 -23 -24
-20 -21 -20 -20 -20 -19 -19 -18 -18 -19 -19 -19 -19 -20 -19 -19 -20 -20 -20 -20 -19 -19 -19 -18 -18 -19 -19 -19 -19 -20 -20 -20 -20 -20 -20 -20 -21 -22 -23 -23 -24 -24 -24 -24
-21 -21 -21 -20 -20 -19 -19 -19 -19 -19 -19 -19 -20 -20 -20 -20 -20 -20 -20 -20 -20 -19 -19 -19 -20 -20 -20 -20 -20 -20 -20 -20 -20 -21 -22 -23 -23 -24 -24 -24 -25 -25 -25 -26
-21 -21 -21 -20 -20 -20 -20 -20 -20 -20 -20 -20 -20 -20 -20 -20 -20 -20 -20 -20 -20 -20 -20 -20 -20 -20 -20 -21 -21 -20 -21 -21 -22 -22 -23 -24 -24 -25 -25 -25 -26 -26 -27 -27
-20 -20 -20 -20 -20 -20 -20 -20 -20 -21 -21 -21 -21 -21 -21 -21 -21 -21 -21 -21 -21 -21 -22 -21 -22 -22 -23 -23 -23 -23 -23 -24 -24 -24 -25 -25 -26 -26 -26 -26 -26 -27 -28 -28
-21 -21 -21 -21 -20 -20 -20 -20 -21 -21 -21 -21 -21 -21 -22 -21 -22 -22 -22 -22 -23 -23 -23 -23 -23 -24 -24 -25 -25 -25 -25 -25 -26 -25 -26 -26 -26 -26 -28 -28 -28 -28 -29 -29
Height
5639 5649 5657 5664 5672 5679 5687 5694 5703 5711 5718 5726 5731 5737 5743 5747 5751 5755 5758 5760 5762 5763 5764 5766 5768 5769 5771 5772 5774 5776 5778 5780 5781 5783 5784 5784 5784 5785 5784 5783 5782 5778 5775 5774
5634 5643 5652 5659 5668 5675 5683 5692 5701 5710 5717 5724 5731 5737 5742 5747 5750 5754 5757 5759 5760 5761 5762 5765 5765 5766 5768 5769 5771 5774 5776 5778 5780 5781 5783 5782 5782 5782 5781 5779 5778 5775 5772 5769
5630 5639 5647 5656 5664 5671 5680 5690 5698 5707 5716 5724 5731 5736 5741 5746 5749 5752 5755 5756 5757 5759 5760 5761 5762 5764 5766 5768 5770 5772 5774 5776 5778 5779 5779 5780 5779 5778 5777 5776 5773 5771 5767 5763
5626 5635 5643 5652 5660 5668 5677 5687 5697 5708 5715 5722 5728 5733 5740 5744 5747 5750 5753 5754 5755 5757 5758 5760 5761 5763 5765 5766 5768 5770 5772 5774 5774 5775 5775 5775 5774 5773 5772 5771 5769 5765 5763 5759
5624 5632 5640 5648 5657 5665 5675 5686 5696 5705 5715 5721 5727 5732 5738 5742 5745 5749 5751 5752 5753 5755 5757 5758 5758 5760 5762 5764 5766 5767 5769 5770 5770 5771 5771 5770 5769 5768 5766 5765 5762 5759 5756 5753
5621 5628 5636 5646 5654 5663 5673 5684 5695 5704 5711 5718 5723 5730 5736 5740 5744 5747 5748 5749 5751 5752 5754 5755 5756 5757 5758 5760 5762 5763 5764 5765 5765 5766 5765 5764 5765 5763 5760 5758 5756 5752 5749 5746
5618 5626 5634 5644 5652 5662 5673 5683 5693 5701 5709 5716 5723 5727 5732 5737 5741 5743 5745 5747 5748 5750 5750 5752 5753 5755 5756 5757 5758 5759 5759 5760 5760 5760 5759 5757 5759 5757 5753 5751 5749 5744 5740 5737
5616 5624 5632 5641 5650 5659 5671 5681 5691 5699 5706 5714 5718 5723 5729 5733 5736 5739 5742 5743 5745 5745 5746 5748 5750 5751 5752 5753 5753 5754 5754 5754 5754 5752 5752 5750 5751 5749 5746 5742 5741 5735 5732 5728
5614 5622 5630 5639 5648 5659 5671 5679 5688 5695 5702 5707 5713 5720 5724 5729 5733 5736 5737 5738 5740 5741 5741 5743 5745 5746 5748 5749 5749 5749 5748 5747 5747 5746 5743 5741 5744 5740 5737 5734 5732 5726 5722 5717
5613 5621 5629 5638 5649 5659 5667 5676 5684 5691 5698 5703 5711 5716 5719 5724 5728 5731 5733 5734 5735 5736 5737 5738 5739 5740 5741 5743 5743 5744 5741 5740 5738 5737 5735 5734 5736 5730 5727 5725 5722 5716 5712 5707
5614 5621 5630 5639 5648 5656 5664 5673 5680 5687 5694 5700 5706 5711 5714 5719 5722 5725 5728 5730 5730 5731 5732 5733 5733 5733 5734 5735 5735 5735 5734 5732 5732 5729 5728 5727 5725 5721 5719 5714 5709 5705 5701 5696
5614 5622 5630 5638 5646 5653 5661 5669 5676 5683 5690 5696 5701 5705 5709 5713 5716 5719 5721 5724 5725 5725 5726 5727 5727 5727 5727 5727 5727 5726 5725 5724 5722 5722 5720 5717 5713 5710 5707 5702 5698 5694 5690 5686
5616 5622 5629 5636 5644 5651 5659 5665 5672 5679 5685 5691 5695 5700 5705 5707 5710 5712 5715 5717 5718 5718 5720 5720 5720 5719 5720 5719 5718 5717 5716 5714 5713 5711 5711 5706 5702 5700 5696 5692 5688 5684 5680 5675
5616 5623 5630 5636 5643 5650 5656 5662 5668 5675 5680 5685 5691 5694 5698 5701 5703 5705 5707 5709 5709 5710 5711 5711 5711 5710 5710 5710 5708 5707 5707 5706 5703 5699 5698 5693 5691 5688 5684 5680 5677 5672 5667 5661
5617 5623 5629 5635 5641 5648 5653 5658 5664 5669 5676 5679 5684 5687 5691 5694 5696 5697 5698 5699 5700 5700 5701 5701 5701 5700 5700 5699 5697 5700 5696 5694 5690 5688 5686 5682 5680 5676 5672 5668 5664 5659 5654 5648
5616 5622 5628 5634 5640 5645 5650 5655 5660 5665 5669 5674 5677 5680 5683 5685 5687 5688 5689 5690 5691 5692 5692 5692 5691 5692 5691 5688 5688 5694 5686 5680 5677 5678 5675 5671 5668 5664 5660 5656 5651 5646 5640 5634
5615 5621 5627 5632 5637 5642 5647 5653 5656 5659 5662 5666 5669 5672 5674 5677 5679 5680 5680 5681 5681 5681 5682 5682 5683 5683 5680 5679 5680 5679 5674 5671 5669 5667 5663 5660 5657 5653 5649 5644 5639 5634 5629 5623
5615 5620 5625 5629 5634 5639 5644 5647 5650 5654 5657 5660 5662 5665 5669 5669 5670 5670 5671 5672 5672 5674 5673 5673 5673 5672 5670 5670 5671 5666 5664 5661 5658 5654 5651 5648 5644 5640 5635 5631 5627 5621 5614 5608
5613 5617 5622 5626 5630 5635 5639 5642 5645 5648 5652 5653 5657 5660 5662 5662 5662 5662 5663 5663 5664 5664 5664 5663 5662 5662 5661 5659 5657 5655 5651 5649 5646 5642 5640 5636 5631 5627 5623 5618 5612 5606 5600 5595
5609 5614 5618 5622 5626 5630 5634 5637 5639 5642 5644 5646 5650 5652 5653 5655 5655 5655 5656 5655 5654 5652 5653 5652 5652 5651 5650 5646 5644 5642 5640 5636 5632 5630 5627 5623 5619 5614 5609 5603 5598 5593 5587 5580
5604 5609 5613 5618 5621 5624 5627 5629 5632 5636 5637 5640 5643 5644 5645 5646 5647 5646 5644 5643 5643 5642 5643 5641 5640 5641 5640 5635 5632 5629 5626 5625 5622 5618 5613 5609 5604 5600 5595 5590 5584 5578 5571 5563
5599 5603 5606 5611 5614 5617 5618 5620 5624 5627 5631 5634 5636 5637 5636 5636 5635 5634 5634 5634 5633 5632 5632 5630 5629 5630 5627 5624 5620 5618 5616 5613 5609 5605 5601 5597 5591 5585 5579 5572 5566 5560 5553 5547
5592 5596 5600 5604 5606 5607 5609 5612 5617 5621 5624 5626 5626 5625 5625 5625 5624 5623 5624 5622 5622 5622 5620 5618 5619 5617 5613 5610 5608 5605 5601 5597 5593 5589 5584 5579 5574 5568 5562 5556 5551 5545 5539 5533
5587 5592 5594 5596 5598 5599 5603 5607 5612 5614 5615 5616 5616 5616 5617 5616 5615 5613 5612 5611 5610 5608 5609 5608 5606 5603 5599 5597 5593 5590 5586 5582 5578 5573 5568 5564 5559 5554 5549 5543 5537 5531 5524 5517
5583 5586 5587 5590 5592 5594 5597 5599 5602 5604 5605 5606 5607 5607 5607 5606 5605 5603 5601 5600 5598 5596 5595 5594 5590 5587 5584 5580 5575 5574 5571 5567 5562 5557 5553 5548 5543 5538 5531 5526 5520 5515 5508 5500
5577 5580 5582 5584 5586 5588 5589 5591 5592 5593 5594 5594 5594 5594 5592 5591 5590 5590 5588 5586 5585 5583 5580 5577 5574 5571 5568 5565 5561 5557 5554 5550 5546 5541 5537 5532 5527 5522 5517 5510 5502 5496 5490 5484
5567 5571 5573 5576 5577 5579 5581 5581 5582 5583 5583 5583 5582 5582 5581 5579 5577 5577 5576 5574 5573 5570 5566 5564 5561 5559 5556 5553 5549 5544 5540 5536 5531 5527 5522 5517 5511 5505 5500 5495 5488 5483 5475 5467
Wind_Speed
43 40 42 40 37 39 40 44 50 47 44 43 39 36 31 25 25 21 16 12 11 12 13 13 14 17 17 18 17 17 16 13 14 13 9 8 7 6 7 10 13 16 18 19
42 41 43 40 39 40 44 51 52 48 45 42 39 37 32 26 22 18 13 9 8 12 13 13 16 17 18 20 20 19 17 16 15 12 10 9 10 12 13 14 15 16 18 20
44 43 43 41 41 44 48 54 53 50 45 42 39 36 32 27 22 17 12 8 9 11 14 15 17 17 18 20 19 18 18 17 14 14 12 12 14 14 15 17 18 19 21 23
44 44 43 41 44 48 53 56 52 48 45 42 39 37 31 25 22 17 13 10 9 11 12 14 14 15 17 19 18 18 19 18 16 15 14 15 17 18 19 20 21 23 23 24
45 45 43 42 47 52 55 55 52 48 43 41 39 36 31 26 23 17 13 11 8 12 11 13 16 16 17 18 19 19 21 20 19 18 18 19 19 21 24 24 24 27 28 27
45 44 42 44 49 55 57 55 51 48 46 43 42 35 29 26 23 17 14 13 10 13 15 16 16 18 20 20 22 23 23 24 24 22 23 24 21 24 27 27 27 30 29 29
43 42 43 46 50 55 56 54 51 49 45 43 39 35 31 28 24 20 17 14 12 15 17 20 18 17 17 19 21 24 25 26 27 27 28 29 26 27 30 31 30 31 32 32
39 41 43 46 52 56 56 54 50 48 45 41 40 36 32 29 26 20 18 17 14 17 21 21 20 20 19 20 21 24 26 29 31 32 31 34 29 30 33 35 33 35 34 35
36 39 42 47 53 54 53 53 50 47 45 44 41 37 35 31 27 22 21 20 17 17 21 21 22 23 22 23 23 24 26 29 32 33 36 37 31 34 36 37 36 37 39 39
35 38 42 47 52 50 51 51 50 46 44 44 39 36 36 32 28 24 24 23 21 20 18 20 23 25 25 24 24 23 28 31 34 35 38 38 34 38 39 40 42 40 41 42
31 36 40 45 46 47 50 49 48 47 45 41 39 38 36 32 31 29 27 26 25 25 24 23 24 27 27 27 27 28 31 34 33 36 38 39 37 40 40 43 43 43 44 45
28 31 36 41 44 44 46 48 48 46 44 42 40 38 37 36 34 33 32 30 29 30 29 29 29 30 30 32 33 33 34 35 36 36 37 39 41 43 44 46 46 46 47 48
36 35 36 37 40 43 44 45 45 45 44 43 42 40 38 38 37 35 34 34 34 34 34 34 35 36 36 37 37 37 36 37 38 38 37 39 43 44 44 46 47 47 48 50
37 35 36 35 35 38 40 41 42 43 43 43 42 41 39 39 39 38 38 38 38 38 39 40 41 42 42 41 42 42 39 37 39 43 41 44 44 44 45 46 46 48 50 50
34 35 34 33 33 34 36 38 39 40 41 42 42 42 41 40 40 40 40 40 40 41 41 41 42 43 43 43 43 38 34 37 42 43 43 45 44 44 45 47 49 49 50 52
31 31 31 31 31 31 32 32 35 36 37 39 40 41 40 40 40 41 41 40 39 41 41 41 40 36 39 44 41 27 32 40 43 42 41 43 44 46 48 49 49 49 51 54
31 29 27 27 27 27 28 28 29 32 33 35 36 38 38 35 34 34 34 34 34 36 35 35 33 33 37 39 36 29 36 39 40 40 42 44 45 47 48 48 48 48 50 51
29 28 28 28 27 27 26 24 25 26 28 29 31 29 27 28 29 30 30 31 32 32 34 34 34 37 38 37 33 38 39 41 43 45 45 45 46 47 48 49 48 50 54 57
30 29 29 28 27 27 27 27 28 29 30 29 28 27 27 28 28 29 30 31 31 33 34 35 38 38 39 37 39 40 43 44 45 46 43 41 43 44 46 48 51 56 57 54
35 35 36 33 31 30 29 30 30 30 31 32 30 29 29 29 29 29 30 32 36 39 38 39 41 41 39 40 41 42 41 44 45 45 46 48 48 47 47 51 54 55 57 60
36 35 36 34 33 34 34 35 35 33 33 31 30 29 29 29 30 32 35 37 37 40 41 41 43 42 39 40 40 40 40 40 40 41 44 46 49 51 53 56 58 59 61 62
39 37 41 39 38 37 38 39 38 36 35 32 29 28 32 35 36 38 39 39 43 46 44 44 45 41 39 40 43 43 43 44 45 45 47 50 53 56 56 57 58 59 60 61
35 40 41 39 38 38 38 37 35 33 32 28 32 34 35 35 36 39 39 41 42 41 42 44 44 44 46 47 46 49 52 53 55 57 58 57 54 55 55 57 57 58 62 65
34 37 36 34 36 39 38 33 29 29 32 34 34 34 34 33 35 37 39 41 43 46 46 46 44 46 49 51 53 55 57 58 58 55 51 52 54 56 57 59 60 60 62 62
25 28 34 37 37 36 34 32 32 33 34 35 37 38 39 39 40 40 42 44 46 48 49 49 50 51 52 53 56 59 59 58 57 55 55 56 57 57 59 60 60 60 61 63
34 35 33 33 35 36 37 39 40 41 41 42 43 44 45 45 46 48 48 49 51 49 50 52 51 53 54 54 54 53 53 54 55 56 57 57 57 57 59 63 64 64 65 64
43 42 42 44 45 46 47 48 49 49 49 48 48 47 45 48 49 50 50 50 50 51 52 53 53 49 47 46 48 50 52 51 53 55 56 60 63 62 60 60 62 62 62 63
Wind_Direction
197 199 197 195 195 186 179 177 176 174 176 179 183 184 179 172 179 182 188 201 213 223 222 213 211 212 211 205 203 192 187 185 186 182 197 212 243 269 288 314 325 326 325 334
195 200 198 195 192 183 178 178 177 178 181 184 189 187 185 179 184 190 200 216 222 200 207 196 208 210 208 201 194 195 188 184 190 195 215 242 254 275 291 302 307 316 322 327
197 200 197 194 189 181 178 180 181 182 184 188 194 193 191 188 195 206 217 224 231 205 205 202 205 207 197 201 197 198 196 195 201 216 233 251 263 276 287 295 300 311 317 320
199 199 195 193 188 181 180 183 183 186 187 190 197 196 192 197 207 214 227 239 237 217 213 211 212 210 207 208 207 208 208 212 221 236 247 260 274 282 289 296 302 309 313 314
199 197 193 192 187 181 182 184 184 188 187 193 204 195 190 196 215 222 233 246 243 217 216 214 216 211 214 214 217 220 219 224 235 243 254 261 271 284 291 297 304 306 310 312
196 193 193 192 186 183 182 186 187 190 192 198 203 199 203 209 219 227 238 245 250 221 218 223 225 223 223 221 222 227 228 233 242 248 259 263 271 283 288 295 299 303 303 310
191 190 192 188 186 183 185 188 189 194 196 200 207 207 209 215 221 229 235 243 250 231 229 231 232 241 241 239 237 238 240 243 250 256 262 267 275 282 286 291 297 300 302 307
187 190 190 185 185 184 187 190 193 197 200 203 209 213 216 219 225 234 242 246 251 236 236 240 239 244 250 252 248 249 251 252 256 261 265 272 277 282 286 291 298 299 301 304
189 188 187 186 186 184 189 192 197 199 203 207 211 216 219 221 229 237 244 249 253 253 247 249 250 252 252 248 251 255 258 260 260 264 266 271 277 282 286 290 298 298 300 302
186 187 185 186 185 182 191 195 200 204 206 211 214 218 224 227 232 239 246 253 260 265 265 262 261 261 260 258 261 258 261 261 261 264 269 274 281 285 288 293 294 298 301 304
181 184 183 185 183 187 195 198 203 208 211 215 218 220 227 229 234 242 248 254 260 263 268 272 272 271 269 269 270 268 268 270 271 270 274 279 282 284 288 291 294 297 303 303
174 178 185 186 187 191 196 202 208 212 215 219 223 225 230 235 239 245 252 258 262 266 270 272 274 276 276 273 271 272 272 271 274 275 278 281 284 287 291 293 294 297 299 298
172 175 183 190 193 196 201 205 210 215 217 221 224 226 231 238 243 247 252 258 261 264 269 273 275 276 276 274 274 274 275 276 278 279 280 282 284 286 288 290 291 294 296 299
183 182 185 189 194 200 205 210 214 218 222 225 229 232 235 240 247 251 256 259 263 266 268 270 273 275 275 275 276 275 279 281 279 278 282 281 285 286 288 291 293 297 301 302
188 192 194 196 200 205 209 214 218 221 225 229 233 236 239 243 248 252 256 259 263 265 268 271 272 274 277 278 279 281 282 280 278 279 281 285 287 289 291 294 296 299 300 301
189 193 196 201 206 211 214 219 224 228 232 235 238 241 245 248 252 255 259 263 265 267 269 272 274 277 277 278 280 286 276 273 278 283 284 286 288 290 291 294 296 297 298 299
194 196 197 199 203 208 213 217 223 229 233 237 240 243 247 252 256 259 261 264 267 270 272 274 275 274 273 278 284 279 275 278 281 283 284 286 288 290 292 292 293 295 297 298
201 204 207 210 214 217 218 219 224 229 234 239 243 247 250 254 256 258 261 263 265 268 271 271 272 272 275 280 283 280 282 283 285 286 288 291 292 292 291 293 294 295 297 303
208 212 217 221 223 224 227 229 232 236 240 242 246 250 250 255 260 263 265 268 270 270 272 274 274 276 282 283 283 284 284 285 286 287 289 293 296 296 295 294 294 295 301 300
216 220 224 225 230 233 237 240 241 242 245 248 253 255 259 260 263 266 269 270 270 273 272 274 277 282 284 284 284 284 285 288 290 290 288 290 294 295 293 293 296 296 293 294
217 225 231 233 235 239 241 242 244 244 246 250 256 261 266 268 268 267 267 268 269 269 271 272 277 280 284 284 284 284 284 288 292 291 289 289 289 290 293 294 295 295 297 300
228 232 232 237 241 244 245 245 247 249 251 254 260 264 267 267 266 266 267 269 272 275 276 274 278 282 282 281 282 284 286 288 289 290 289 290 292 294 296 297 299 300 299 295
225 230 235 240 241 242 244 247 250 255 258 256 262 267 268 267 266 264 267 270 273 276 275 278 283 285 284 283 285 286 287 288 289 292 294 296 295 296 298 298 296 290 284 287
224 226 234 237 238 241 248 253 253 253 255 260 264 268 271 270 268 269 272 273 274 276 278 282 285 285 285 286 287 288 291 294 296 296 294 295 295 294 292 291 292 291 294 297
229 230 233 237 241 247 250 253 257 258 259 261 263 267 270 272 272 274 275 277 278 281 285 287 288 289 290 292 293 294 294 293 293 293 293 293 293 292 291 292 293 294 297 302
239 237 242 243 246 250 254 258 263 266 268 269 272 276 278 278 278 279 281 282 284 287 288 290 292 292 292 293 294 295 295 294 293 291 290 289 290 289 287 290 296 301 305 305
248 248 250 248 247 249 252 256 259 261 263 266 269 270 270 272 273 275 277 279 280 282 283 285 288 290 289 287 288 288 289 289 287 285 280 278 284 292 301 304 303 303 302 302